Theta_e
344 346 347 348 348 347 348 348 347 348 349 349 348 348 348 348 348 348 348 348 348 348 348 346 345 344 343 342 342 341 341 342 342 338 336 338 338 338 338 340 340 340 341 342 342 344 344 343 342 341 339 339 338 337 337 337 337 337 338 339 340 340 340 340 341 341 340 341 339 339 338 337 336 336 334 338 337 339 339 339 339 336 337 338 340
343 346 348 349 348 347 347 348 347 347 348 349 349 349 348 348 348 347 347 348 348 347 346 345 345 344 343 342 342 341 340 340 340 339 340 340 340 339 340 341 340 340 341 341 341 342 343 343 340 339 339 338 338 338 337 336 336 336 337 338 339 339 339 340 340 340 341 339 339 338 338 338 337 336 335 335 337 338 340 340 339 337 337 339 340
344 346 348 349 348 347 347 347 347 346 345 349 349 348 348 347 347 347 347 347 348 346 346 345 344 343 342 342 341 339 339 337 336 337 338 340 339 339 339 339 341 341 341 341 341 341 341 341 340 339 338 339 338 337 338 337 337 336 337 338 338 338 338 339 339 339 340 340 339 338 338 338 336 336 336 337 337 339 340 339 339 338 337 339 339
343 346 348 348 347 349 347 347 346 346 345 347 349 348 347 348 347 347 347 347 348 347 346 345 344 342 342 342 341 338 336 336 338 339 339 338 338 339 339 340 340 340 339 340 340 341 340 341 341 340 339 337 337 336 336 335 335 336 336 337 337 336 337 337 337 338 339 340 339 340 337 336 335 337 337 337 336 339 339 338 338 339 339 339 339
343 346 347 347 348 348 348 347 346 345 344 344 349 347 348 348 348 348 348 348 347 347 346 345 344 343 342 340 338 337 338 340 339 338 338 339 338 341 340 339 339 340 340 341 341 340 340 339 339 339 338 337 337 336 336 334 335 336 336 335 335 335 335 335 336 336 337 339 341 340 337 335 335 336 337 338 339 338 339 338 338 338 339 339 339
344 346 347 347 347 347 348 346 345 344 344 343 345 347 348 348 347 348 348 348 347 347 346 345 343 341 340 338 338 338 338 338 339 339 339 338 339 338 339 340 340 339 341 341 340 340 339 339 338 338 338 336 335 335 334 333 333 334 334 334 333 333 334 334 334 335 335 336 340 338 337 337 334 335 338 339 338 338 337 338 339 339 339 339 339
344 346 347 347 347 347 345 346 344 344 343 343 344 345 348 347 348 348 347 348 348 347 346 344 341 339 338 338 338 337 337 338 339 337 337 339 341 340 339 338 337 340 340 340 341 341 340 340 339 339 338 336 335 334 334 333 333 333 332 332 332 332 332 332 333 335 335 337 336 337 337 337 336 336 338 338 338 338 337 338 339 339 340 339 339
345 346 346 347 347 346 345 345 344 344 342 342 342 343 345 348 346 346 345 347 348 347 345 343 341 340 339 339 338 337 339 340 341 341 340 338 338 337 339 339 339 340 339 339 339 339 338 338 337 337 338 336 335 334 334 333 332 332 331 331 331 331 331 331 331 332 334 333 336 337 337 337 337 337 338 337 338 338 337 338 339 340 340 339 337
344 344 346 347 349 343 345 346 344 343 341 341 341 341 343 342 344 343 343 343 342 345 345 344 342 341 341 340 339 340 340 339 338 337 337 337 339 339 339 338 338 338 337 337 338 338 337 337 337 337 337 335 335 333 333 333 333 332 332 331 331 330 330 331 333 333 335 333 334 335 337 337 337 336 337 338 337 337 339 338 339 340 338 336 337
343 345 346 347 348 342 346 345 344 343 341 340 340 340 341 340 341 343 342 342 342 342 341 342 343 340 339 340 341 342 340 339 337 336 336 337 338 338 337 336 336 338 338 338 338 338 337 336 336 337 337 336 334 334 333 333 332 332 331 331 330 330 330 332 333 335 330 331 332 334 337 341 337 336 337 338 337 337 338 337 338 337 336 337 336
342 344 345 346 348 342 345 344 345 343 341 340 340 340 340 341 341 341 342 341 343 341 340 340 339 338 339 342 342 343 342 340 338 337 336 336 337 335 336 338 338 337 336 337 337 337 337 337 337 336 335 334 334 333 333 333 332 331 331 331 330 330 331 331 336 330 330 329 332 334 337 338 336 336 338 338 338 338 338 337 337 337 336 336 335
342 344 346 347 346 341 345 345 345 343 341 340 341 340 340 341 341 341 340 340 342 341 339 339 339 342 343 344 344 343 341 340 338 336 336 335 336 337 336 335 336 336 336 336 336 336 336 336 336 336 335 334 333 333 333 332 332 331 331 330 331 330 332 331 329 329 330 330 331 334 337 335 334 336 337 337 338 338 338 337 336 337 337 335 333
343 343 344 347 347 340 344 344 345 344 341 341 341 341 340 341 341 341 340 340 341 341 340 340 341 342 343 344 343 343 341 341 339 338 339 338 337 335 336 336 336 336 336 336 336 336 335 336 336 335 336 334 333 333 333 332 331 331 331 330 330 331 331 329 329 329 329 330 330 334 336 336 335 337 336 337 339 339 339 337 337 336 335 333 332
343 343 344 346 346 346 340 343 345 344 343 344 341 341 341 340 340 340 339 340 340 340 339 340 340 341 343 343 342 343 341 341 339 340 339 338 336 335 337 337 336 335 334 335 335 335 334 335 335 335 334 334 333 334 334 332 331 332 331 330 331 331 329 333 330 329 329 330 331 335 336 335 336 336 337 338 339 338 339 338 337 335 333 331 330
342 344 344 345 346 345 344 339 342 343 344 344 344 341 341 340 339 340 340 340 340 340 341 341 340 339 340 341 342 342 342 341 341 340 338 337 337 338 337 336 335 334 335 335 334 334 334 334 335 334 334 333 334 334 334 332 331 331 331 330 330 329 329 328 329 330 330 330 332 335 335 335 339 338 337 338 339 338 338 336 335 334 332 330 329
344 344 344 343 345 345 345 344 336 338 341 342 343 343 342 341 341 340 340 340 341 342 342 341 340 340 339 339 340 341 341 341 341 339 339 338 338 338 337 336 335 335 335 335 334 334 334 334 334 334 333 332 333 332 333 333 332 331 330 330 330 328 328 326 329 329 328 331 334 336 335 336 338 337 337 338 339 338 336 335 334 333 331 329 329
343 344 343 344 346 344 343 343 340 333 334 337 339 340 341 341 339 341 343 344 343 342 341 339 338 339 339 339 340 340 340 340 340 339 339 338 338 337 336 335 335 334 335 334 334 333 334 334 333 333 332 332 332 332 332 333 332 330 330 328 328 328 327 326 328 328 329 332 335 335 334 336 336 337 337 338 339 337 335 334 332 331 330 328 328
343 343 343 343 343 343 343 343 344 344 343 337 334 337 339 340 339 341 344 343 343 342 342 343 341 342 341 340 340 340 340 339 338 338 338 337 339 337 335 335 335 334 334 334 333 333 333 334 334 334 334 333 332 333 333 332 331 330 329 329 327 326 327 325 327 328 330 334 334 335 334 337 336 336 337 337 338 337 335 334 332 330 327 326 326
341 341 342 342 342 342 342 343 343 342 342 341 342 341 333 337 338 339 341 341 341 341 341 339 339 338 337 336 335 333 332 334 336 337 337 336 335 335 337 336 334 334 334 333 333 333 333 334 334 334 335 334 333 332 333 331 330 329 329 328 326 326 323 327 327 329 330 332 333 334 334 337 336 336 335 337 336 336 334 333 331 329 328 327 327
340 341 341 342 342 342 342 342 342 342 342 342 341 341 334 332 336 337 338 338 338 337 335 334 333 331 330 330 330 333 332 332 328 333 332 333 331 332 334 335 334 333 333 333 332 333 334 334 333 333 334 334 333 333 331 330 329 329 327 326 326 323 330 326 327 326 329 330 332 333 332 337 335 336 336 336 335 335 333 332 330 329 328 328 328
339 340 340 341 342 341 341 341 341 341 341 341 340 340 341 332 332 332 332 333 334 333 330 324 324 324 326 325 329 337 337 337 337 336 330 332 326 327 333 335 334 333 333 332 332 332 334 333 332 332 332 331 329 328 329 329 328 327 327 325 322 329 326 326 326 324 326 330 331 331 332 335 333 334 335 336 335 334 332 331 330 328 327 327 326
336 337 339 340 339 340 341 340 341 341 340 340 340 341 342 337 338 340 341 335 330 328 330 336 334 335 322 329 336 333 333 334 335 335 335 332 329 323 326 330 331 332 333 333 332 332 333 333 331 331 330 328 324 330 326 324 326 325 323 321 327 327 326 325 326 325 324 328 330 328 332 335 330 331 331 334 334 333 331 330 329 328 326 326 326
334 336 337 338 339 339 340 339 339 340 340 339 340 341 341 338 338 337 337 333 337 336 338 337 337 337 335 336 333 331 331 332 334 333 331 322 325 322 324 326 327 328 329 330 330 331 331 329 328 330 328 326 330 331 328 330 327 321 319 324 326 326 326 325 325 325 323 322 330 326 329 334 330 330 335 334 332 331 329 328 327 326 327 327 327
333 334 335 338 338 338 339 339 339 339 339 338 340 339 339 339 337 336 336 338 339 338 338 337 336 336 336 334 329 330 331 330 329 329 329 331 325 320 321 322 322 322 323 326 325 327 327 326 325 324 327 327 329 328 327 327 327 327 327 326 326 326 326 325 324 325 324 322 327 323 327 332 333 332 332 331 331 329 328 326 326 325 326 326 325
334 335 336 336 337 337 338 339 339 339 339 338 338 337 338 337 337 336 336 336 337 337 336 337 337 336 335 333 332 331 332 329 332 331 330 332 331 329 328 329 329 328 318 328 329 331 326 329 327 325 329 329 327 327 328 327 326 327 327 326 326 326 326 325 324 324 325 322 322 322 326 330 334 331 331 331 330 328 326 325 325 325 325 325 324
335 333 334 335 337 337 337 338 339 338 338 338 337 337 337 336 337 336 335 335 336 336 336 336 336 336 335 333 332 331 331 329 328 328 329 330 331 330 331 331 330 330 326 328 327 327 325 328 328 327 327 328 328 327 326 325 326 326 326 327 326 326 325 325 323 324 325 322 319 320 325 327 330 330 330 330 327 325 325 325 325 325 324 324 324
333 333 334 334 335 336 337 338 338 338 337 338 338 337 336 337 337 337 336 335 335 335 334 334 334 335 335 334 332 330 329 328 327 327 327 328 328 328 328 329 329 327 329 326 326 326 325 326 327 327 327 328 328 328 327 328 328 327 327 327 326 325 325 324 324 324 325 324 320 316 323 325 327 330 331 326 326 326 325 324 324 324 324 323 322
333 333 333 333 334 335 336 337 338 337 336 337 336 336 336 336 336 333 336 334 334 333 333 333 334 334 334 332 330 330 326 326 326 325 326 326 326 327 328 328 327 327 329 327 325 325 325 325 326 326 327 328 327 327 327 327 327 327 326 327 326 326 325 323 323 324 324 325 321 319 321 323 326 327 329 328 329 328 326 325 324 324 324 323 323
332 333 334 333 334 334 335 336 337 337 336 336 335 335 336 336 336 336 336 333 335 334 334 333 332 332 332 332 331 327 326 326 325 325 325 325 326 326 327 326 326 327 329 327 325 325 324 324 324 325 326 327 326 327 326 326 326 326 326 327 326 325 325 324 323 323 324 323 322 317 319 322 324 325 327 329 329 329 328 326 324 323 323 323 323
333 334 334 334 334 334 334 335 336 336 336 336 335 335 335 335 335 335 335 335 335 335 335 333 332 331 330 330 330 328 328 326 326 326 325 324 324 325 325 325 325 327 327 326 324 325 324 323 323 324 325 326 326 326 326 325 325 326 327 326 326 325 325 323 323 323 323 323 323 316 315 319 322 324 325 326 331 329 328 327 324 322 322 322 322
333 333 333 334 334 334 335 335 336 337 337 335 335 335 335 335 335 335 335 335 335 335 334 334 332 331 330 330 329 329 328 328 327 327 326 325 325 325 324 326 326 326 327 326 325 324 324 323 323 323 325 325 325 326 325 325 326 326 326 326 326 326 324 323 323 324 322 323 323 323 323 316 321 322 324 326 329 329 328 327 325 323 322 323 322
332 332 333 334 334 334 334 335 335 336 335 335 335 334 334 335 335 335 334 336 335 334 334 333 331 331 331 331 330 329 328 328 328 327 326 325 324 324 324 324 324 324 325 325 324 325 324 324 324 325 326 326 325 325 326 325 325 325 325 325 326 325 324 323 323 322 322 323 322 323 323 322 316 318 321 324 326 329 328 327 325 324 323 322 323
333 333 334 334 333 334 333 334 335 336 335 334 334 335 334 334 335 335 334 336 335 334 333 333 332 332 332 331 331 330 329 327 328 328 327 326 325 324 323 323 323 323 325 325 325 325 323 323 324 325 325 325 324 324 327 326 325 324 324 325 325 324 324 324 323 322 322 323 321 321 323 320 320 315 316 319 325 328 327 324 325 322 323 322 322
332 333 334 333 334 335 334 335 335 335 335 334 333 333 334 334 334 335 334 334 334 333 332 333 333 332 331 331 331 331 330 329 328 327 326 326 326 325 325 324 324 324 325 325 324 324 323 323 322 323 320 321 322 323 324 324 324 324 324 324 324 324 325 324 322 322 322 321 321 322 321 321 318 320 326 317 320 325 328 324 325 323 322 322 323
333 333 333 334 334 334 334 333 334 334 334 334 333 333 333 333 333 334 334 334 334 333 332 332 332 332 332 331 331 331 331 330 329 327 326 326 326 326 326 326 326 325 324 324 323 322 323 322 321 321 321 321 321 322 324 323 323 323 324 324 324 324 324 323 323 323 322 322 322 322 322 321 320 319 322 324 316 320 324 325 324 323 323 323 323
331 332 334 334 333 334 334 334 334 334 334 334 334 333 333 333 334 330 334 335 334 333 332 332 332 332 332 330 330 331 331 331 329 328 326 325 326 326 326 326 327 327 325 324 323 322 322 323 323 322 320 321 322 321 323 323 323 324 324 324 324 323 323 323 323 322 323 322 321 321 321 321 321 320 316 318 322 319 319 322 324 323 323 323 322
331 332 332 334 334 334 333 333 333 333 334 335 335 334 333 333 333 333 333 334 333 332 332 332 331 331 331 330 330 330 330 331 330 330 328 326 326 326 326 327 328 327 327 324 324 324 324 324 322 322 323 321 322 322 322 323 323 323 324 324 324 324 324 323 322 322 324 321 320 320 320 321 321 315 318 317 320 320 315 318 322 323 323 323 322
330 331 332 333 333 334 334 334 334 334 334 334 334 334 333 333 333 333 332 332 333 333 333 332 331 331 330 330 330 330 329 330 330 330 329 326 326 326 327 327 327 327 326 325 325 324 322 322 322 323 323 322 320 321 321 322 323 323 323 322 323 324 323 323 323 320 322 321 320 320 319 320 320 319 318 317 319 319 318 314 314 315 313 316 321
329 330 331 331 333 333 333 334 333 334 334 334 335 334 333 332 332 332 332 332 332 332 332 331 331 330 330 330 330 330 329 329 330 330 329 327 325 326 326 327 327 326 325 325 324 324 323 323 322 322 323 324 322 321 321 322 323 323 323 322 322 323 324 324 323 322 322 321 320 320 321 320 319 318 318 319 318 318 318 317 315 316 315 312 318
328 329 329 330 331 332 333 334 333 333 334 334 334 333 332 330 329 330 330 330 331 330 331 330 330 329 329 329 330 331 331 329 329 330 330 329 326 325 325 327 326 325 324 324 323 323 323 323 323 322 322 323 323 323 322 322 322 321 320 322 322 322 323 323 323 322 322 321 321 320 318 319 318 318 318 318 318 319 317 317 315 316 316 313 313
329 328 329 329 330 330 331 331 333 333 333 332 332 331 329 329 329 328 328 329 329 330 330 330 329 329 329 330 330 331 331 331 329 330 329 327 327 326 326 325 326 324 324 324 324 323 324 324 322 322 321 321 321 322 323 323 320 318 320 321 321 322 322 323 322 322 322 322 320 316 317 317 316 316 317 317 317 317 316 316 315 316 315 314 310
326 328 328 329 329 330 330 331 332 333 332 332 332 331 331 330 328 327 328 328 328 327 327 328 329 329 330 330 331 332 332 331 330 329 329 329 327 326 326 325 324 324 324 325 325 322 324 324 323 321 322 320 320 322 322 321 318 315 314 316 317 320 321 321 320 320 321 321 320 317 316 315 315 315 316 316 316 315 315 314 315 314 314 313 311
323 326 329 329 329 329 330 330 331 332 332 332 332 331 331 331 330 330 329 328 330 330 329 328 329 329 330 330 332 332 332 331 331 330 328 328 328 327 326 326 325 324 323 324 323 323 323 323 323 321 320 321 321 323 323 322 316 317 317 314 312 312 317 318 320 319 320 319 319 317 315 314 313 314 315 314 314 314 314 313 313 313 312 309 308
321 322 325 327 329 329 330 330 330 331 331 332 331 333 332 332 332 332 331 330 328 329 329 329 329 329 328 330 331 332 331 330 330 330 329 329 329 327 326 326 326 325 324 323 323 322 323 323 322 321 321 318 319 319 323 323 319 317 311 312 312 312 309 312 314 318 319 319 317 317 315 313 313 314 314 313 312 313 313 313 312 311 310 308 307
321 322 322 325 326 328 329 330 330 330 331 331 331 332 332 331 332 332 332 329 329 328 327 326 327 327 327 328 328 330 331 330 330 330 330 329 329 329 328 327 326 326 325 323 322 322 323 323 323 321 320 318 318 319 320 322 321 320 316 312 311 309 309 312 315 315 317 316 316 316 316 314 314 313 313 312 312 312 312 311 311 310 309 307 306
321 323 324 324 326 327 329 330 330 330 330 331 331 331 331 330 329 328 325 325 324 324 323 323 325 326 326 328 329 330 330 330 330 330 330 328 328 329 329 328 327 326 326 324 324 323 323 323 323 322 321 321 318 319 318 320 321 321 321 319 317 312 312 314 313 309 315 317 314 314 315 315 315 313 312 312 311 311 311 311 310 309 308 307 305
321 322 323 324 325 327 329 330 330 330 331 331 332 330 330 331 330 328 327 326 324 325 327 327 327 328 329 328 329 330 330 330 329 330 330 329 329 329 329 329 328 327 326 325 324 324 324 324 324 323 321 321 320 316 318 319 319 319 320 321 320 320 320 315 311 313 309 311 312 311 312 314 314 314 312 311 311 310 310 310 309 308 307 306 304
322 322 322 323 324 325 327 328 330 329 330 331 331 330 329 330 330 329 328 327 326 326 327 327 329 329 329 329 329 329 330 330 330 330 330 329 328 328 329 329 329 328 327 326 326 326 325 326 325 324 323 322 321 317 316 319 317 316 318 319 319 320 321 321 320 316 312 310 308 310 311 311 310 311 312 311 310 310 309 309 308 307 305 305 304
322 322 321 322 324 325 326 328 328 329 330 331 330 330 329 329 330 330 328 328 329 328 329 328 328 329 328 329 329 329 330 330 330 330 330 330 328 328 328 329 329 329 327 327 327 327 326 325 325 324 323 322 322 321 318 316 319 319 317 317 319 319 319 319 320 319 314 311 311 311 307 309 308 308 308 310 310 310 310 309 308 307 305 304 303
322 323 321 322 323 324 325 326 327 328 329 330 330 330 330 328 329 329 329 328 328 329 329 328 328 328 327 328 329 329 329 329 330 330 330 330 330 328 328 328 328 329 326 328 328 327 327 326 326 325 325 324 323 322 320 319 318 320 320 319 316 317 317 317 317 317 316 315 312 312 313 303 302 304 306 306 307 309 310 309 308 307 305 304 303
322 321 321 320 321 321 322 324 325 327 328 329 330 329 329 329 327 328 329 329 329 328 327 327 328 328 326 327 328 329 329 329 330 330 330 330 330 329 327 328 329 328 327 328 327 327 326 326 326 326 325 324 323 322 321 321 319 319 321 320 318 317 316 314 315 316 315 313 312 311 313 313 309 309 308 307 306 307 308 308 308 306 305 305 303
Wind_Speed
8 10 9 9 7 7 8 8 8 10 9 10 9 9 9 9 9 9 9 9 10 12 11 11 11 10 11 11 11 10 12 11 11 10 9 8 7 7 9 9 11 11 10 11 12 14 14 16 16 14 14 15 15 14 14 14 14 14 14 15 15 15 15 14 13 13 13 13 16 14 14 14 14 13 13 14 13 14 11 16 12 10 9 10 13
10 9 8 9 6 7 8 8 9 8 10 9 9 9 9 9 9 10 10 8 10 11 11 11 11 10 11 11 11 11 10 11 11 11 11 10 9 8 10 12 12 12 12 11 11 14 14 15 15 14 14 14 15 14 14 14 14 14 13 15 15 15 14 13 12 11 10 12 14 15 15 15 14 13 13 15 13 14 13 16 14 10 7 12 13
10 9 8 10 6 7 7 8 8 8 8 10 9 10 9 9 9 9 8 8 9 11 11 11 10 10 11 11 10 10 11 10 9 10 10 11 9 9 10 11 12 12 10 10 12 12 13 13 15 13 14 14 14 14 14 13 13 13 14 13 14 13 13 12 11 10 9 8 10 14 15 15 13 14 14 14 13 14 14 14 13 13 9 13 12
10 8 8 9 5 4 9 8 8 8 8 9 9 9 9 9 9 8 7 9 9 10 11 11 10 10 10 11 11 11 9 9 11 11 10 10 11 10 10 11 11 10 11 12 12 12 13 13 15 15 14 13 13 14 13 13 13 13 13 13 13 13 12 11 9 8 6 4 4 1 6 9 10 12 12 12 13 14 12 13 13 13 13 13 14
10 8 8 9 9 6 8 8 8 8 8 8 9 8 8 9 10 9 9 9 9 8 10 11 10 11 11 11 10 9 10 11 10 10 10 10 11 12 12 11 10 11 11 13 12 12 12 12 13 13 13 13 13 13 13 13 13 13 12 12 12 12 11 9 8 7 7 7 6 8 7 9 8 10 11 12 13 10 12 12 13 13 13 15 17
9 8 9 9 8 9 5 9 9 9 8 8 8 8 8 9 9 10 10 10 10 10 10 11 11 11 10 10 8 9 10 10 10 10 11 10 11 10 11 11 10 10 12 12 11 12 12 12 12 13 14 13 13 13 13 13 13 12 11 12 11 10 10 8 8 8 7 9 3 7 8 7 8 8 11 11 11 9 12 14 13 13 14 16 18
9 8 8 8 7 9 6 8 8 9 9 9 8 8 9 8 9 9 10 10 11 10 10 10 11 11 10 9 9 9 9 9 9 10 9 11 11 10 10 8 10 12 11 11 12 12 13 12 12 12 13 13 12 12 12 12 12 12 12 11 11 10 8 8 7 9 9 4 7 7 6 7 7 6 11 10 10 10 11 13 13 13 16 16 16
8 7 8 8 7 9 6 8 8 8 8 8 8 6 8 8 8 8 8 10 10 10 9 10 10 11 10 9 10 8 10 10 11 10 10 10 10 9 10 9 10 10 10 11 11 11 11 11 11 11 12 13 12 12 11 11 11 11 12 12 11 10 8 8 10 10 12 5 5 7 6 7 7 6 10 10 10 10 10 12 13 15 15 16 13
8 8 7 7 8 10 5 7 7 7 7 7 7 7 6 4 8 8 7 6 5 9 10 9 10 9 9 9 9 9 9 9 9 9 9 9 9 9 10 10 9 10 10 10 11 10 11 10 10 11 12 11 11 11 11 11 11 11 11 11 10 9 7 7 8 11 3 7 7 6 7 7 7 6 9 10 10 11 13 11 13 16 16 14 15
9 7 7 7 8 9 6 5 5 7 6 6 6 6 5 4 6 9 7 6 7 7 6 8 10 8 8 8 9 9 10 9 9 9 8 9 9 9 9 8 8 9 9 10 9 10 10 10 10 10 11 11 10 10 10 10 10 10 10 10 9 8 8 8 10 11 5 7 7 9 6 6 7 7 9 10 10 10 12 15 13 11 12 16 18
8 7 7 7 11 9 7 5 3 6 5 5 6 5 5 4 4 8 7 8 8 7 6 6 5 5 6 8 8 9 9 10 9 8 8 9 9 8 9 9 8 7 9 9 9 9 9 10 10 10 10 10 10 9 9 10 9 9 9 9 9 8 9 9 11 5 4 7 6 7 7 7 6 7 10 10 10 13 13 13 12 13 17 18 18
8 7 6 7 11 8 7 5 5 5 5 4 4 4 4 4 5 8 7 7 8 7 6 6 6 6 6 7 9 8 8 10 9 8 9 7 7 8 8 8 8 8 7 8 8 9 9 9 9 10 10 9 9 9 9 9 9 9 9 8 8 7 9 11 5 3 4 7 4 6 6 6 8 7 9 9 11 12 13 13 14 16 18 17 17
9 7 7 9 9 8 7 6 5 6 6 5 4 4 4 5 6 7 7 7 7 6 7 7 6 7 6 7 8 9 9 10 9 9 10 9 7 7 8 7 7 7 7 7 8 8 8 8 9 9 9 9 8 8 8 8 8 8 8 8 8 7 8 12 4 4 4 6 5 6 6 6 7 8 8 9 10 12 14 14 16 18 16 17 16
8 8 7 7 8 8 7 6 5 8 7 5 5 5 5 4 5 5 6 7 6 6 6 7 6 7 9 7 7 8 9 10 10 10 10 8 7 6 8 8 7 7 7 7 7 7 7 8 8 8 8 8 8 7 7 7 8 8 8 8 8 9 10 6 3 5 4 5 3 6 5 7 7 8 8 10 11 13 14 16 17 17 16 16 16
8 7 7 6 9 9 8 5 5 8 6 6 5 6 6 4 4 5 6 7 5 6 8 7 6 5 6 8 7 7 7 8 9 10 9 8 8 8 8 8 7 6 6 6 6 6 6 7 8 8 8 7 7 6 6 7 7 8 8 7 8 9 11 5 4 5 4 3 5 6 5 6 6 9 8 11 13 14 15 17 16 16 16 15 15
8 8 7 7 8 10 8 7 4 5 7 6 6 5 5 6 3 5 5 5 7 8 8 7 6 6 5 4 6 6 7 7 7 6 7 8 8 8 8 7 6 6 5 5 5 5 6 7 8 7 7 7 7 6 6 6 7 7 7 6 6 8 9 9 3 4 4 4 5 6 5 6 7 9 8 11 14 14 16 16 15 15 15 14 15
7 7 8 7 7 9 9 9 7 4 6 7 6 5 4 3 1 2 2 7 7 7 7 6 7 6 5 5 4 6 7 6 6 6 7 7 7 7 7 7 6 6 5 5 5 5 6 7 7 7 6 6 6 6 6 6 7 7 6 4 6 5 8 10 4 5 4 4 5 4 5 6 8 8 9 11 14 14 15 15 15 15 14 14 14
6 8 8 8 7 8 8 9 10 8 8 7 6 5 3 3 2 2 4 9 8 6 5 2 5 6 8 8 8 7 6 6 5 5 5 6 5 6 6 6 6 6 5 4 4 5 6 7 7 6 6 6 6 6 6 5 6 6 5 5 3 4 7 9 4 5 4 5 5 4 6 6 9 8 8 12 14 15 15 15 15 15 13 13 13
7 8 8 7 8 7 7 7 10 9 9 8 8 7 5 3 3 5 7 8 7 7 7 8 8 8 8 10 10 8 9 8 8 8 5 5 6 5 4 5 6 6 5 5 4 5 6 6 6 6 6 6 6 6 6 7 5 5 5 2 4 6 7 5 5 4 3 5 5 5 5 7 9 7 8 12 13 14 14 14 14 14 12 12 12
7 7 8 7 7 7 7 6 7 8 9 8 8 8 7 6 4 6 7 7 8 8 9 9 9 9 9 9 10 8 7 6 6 6 6 6 5 4 7 6 6 6 5 5 5 5 6 6 6 6 6 6 6 7 7 6 6 4 2 2 7 7 4 3 3 3 3 5 5 4 7 8 7 8 10 12 12 12 13 13 13 13 12 12 12
6 8 8 8 8 8 8 6 7 8 8 8 6 7 8 8 6 5 6 7 9 9 9 9 9 7 6 7 7 6 5 5 6 5 5 5 7 7 7 6 4 4 5 5 4 5 5 5 6 6 5 6 6 7 7 6 5 4 1 6 7 4 4 2 4 3 3 4 4 5 8 9 3 7 9 12 12 12 14 13 12 12 12 11 11
7 7 8 8 8 8 8 8 7 8 8 7 5 5 7 9 8 7 6 6 7 9 7 6 7 6 4 5 5 5 5 5 5 6 5 6 6 7 7 7 6 5 5 4 2 5 5 4 4 5 4 4 5 4 5 5 6 3 5 8 5 3 3 3 3 3 3 3 4 5 9 11 3 6 5 10 11 12 11 11 10 10 11 11 11
8 7 7 10 8 7 8 9 8 8 9 8 5 5 8 7 8 8 7 8 7 7 8 8 8 7 6 6 6 5 5 4 4 6 5 8 6 6 5 5 5 3 2 3 2 3 2 2 1 3 3 6 6 2 3 5 4 7 6 6 0 3 3 3 2 2 4 3 3 8 10 11 5 6 11 10 10 9 8 9 11 9 10 10 10
9 8 7 7 9 8 9 9 9 9 8 8 7 6 7 7 6 7 7 8 8 8 9 8 8 8 7 7 6 5 5 3 7 8 4 3 3 4 5 5 4 3 3 3 5 4 4 2 2 3 5 5 4 1 2 0 4 4 3 1 3 2 2 3 1 1 3 2 4 7 9 10 5 7 9 7 8 9 9 9 11 10 9 9 10
7 7 7 8 9 10 9 9 9 8 9 8 8 7 7 6 6 6 7 7 7 8 8 8 7 7 6 6 6 4 4 6 4 3 4 6 5 5 5 5 5 5 7 4 5 5 5 5 4 4 6 2 1 1 1 1 1 1 2 1 2 1 2 1 1 1 1 3 3 5 7 8 6 6 7 7 8 7 7 8 9 10 9 9 9
6 7 9 9 9 10 10 8 9 10 9 9 8 7 7 7 7 7 7 7 7 7 7 7 7 6 5 6 6 4 3 6 6 6 7 8 7 6 7 6 6 5 6 5 5 6 6 6 6 6 3 3 1 1 0 2 1 0 1 1 1 1 1 1 1 0 1 3 3 5 4 7 8 2 7 10 9 6 7 8 9 9 9 9 8
8 8 8 8 9 10 11 10 9 9 10 10 8 8 8 8 7 7 7 7 6 6 6 7 7 7 6 6 5 4 6 6 6 6 7 7 7 7 7 6 5 7 5 6 6 5 6 5 5 4 3 3 2 0 1 1 1 2 1 1 0 0 1 1 1 0 1 2 4 2 4 5 6 6 9 5 8 10 10 9 8 8 8 8 8
8 9 9 8 9 11 12 12 11 10 9 10 10 9 8 8 8 6 6 6 6 6 6 7 7 7 8 6 6 7 7 7 7 7 7 6 7 7 5 6 6 6 6 6 5 5 5 4 4 4 3 3 3 2 2 3 2 1 1 1 1 2 2 1 1 1 2 1 5 3 3 3 4 7 6 3 12 10 10 11 10 9 9 8 8
10 10 9 10 10 10 12 12 12 12 10 10 10 10 9 9 8 8 8 7 7 6 6 6 7 7 8 8 8 7 7 6 6 7 7 8 6 6 6 7 7 6 6 6 5 6 5 4 4 5 4 4 4 4 3 2 3 3 1 2 2 3 2 2 2 1 2 2 3 5 3 0 4 4 5 7 8 10 12 11 10 10 9 8 8
10 9 9 9 9 11 13 14 13 12 12 11 10 9 9 10 10 10 9 7 7 7 7 7 7 7 8 8 8 8 7 6 6 6 7 7 8 8 8 8 7 6 6 6 6 5 5 5 5 5 5 4 3 2 1 3 3 2 2 2 3 4 2 2 1 3 3 2 2 6 5 2 1 3 5 6 5 12 12 11 8 8 8 8 9
9 10 9 9 9 11 12 13 13 12 12 12 11 11 11 11 10 9 9 8 9 7 7 7 7 8 8 9 9 9 8 7 7 7 7 7 7 7 7 7 6 6 6 6 5 6 5 6 5 5 5 4 4 3 3 4 3 4 4 3 3 4 3 3 3 2 3 3 3 3 6 5 3 1 3 5 6 12 12 12 10 8 9 10 9
11 12 10 9 10 12 12 12 12 12 13 13 11 12 11 11 11 10 10 9 9 9 8 8 7 8 9 8 8 8 9 8 7 7 7 6 6 7 7 7 6 6 6 6 6 6 6 5 4 4 3 3 3 3 4 4 4 4 3 3 4 4 4 4 4 4 4 3 2 3 5 5 5 3 1 5 7 8 14 13 11 11 12 11 11
10 11 11 11 12 12 11 12 12 12 14 13 12 12 11 11 11 10 10 8 9 10 9 8 7 8 8 10 9 9 9 8 7 8 7 7 6 6 6 7 6 6 6 7 7 6 6 4 3 3 3 3 4 5 4 4 5 5 4 4 4 5 5 4 4 4 4 3 4 3 2 3 4 6 3 3 4 7 11 10 12 11 12 11 10
9 9 11 13 11 8 8 9 11 12 13 13 12 11 11 10 10 10 9 10 9 10 10 9 7 8 9 10 10 10 9 8 8 8 8 8 7 7 7 7 6 7 6 6 7 6 5 5 5 5 5 5 6 6 6 6 6 5 5 4 4 4 5 5 5 4 4 5 5 4 4 3 3 4 5 3 2 6 10 9 13 12 11 11 11
10 10 13 14 13 11 9 9 11 12 12 13 13 12 11 11 10 10 11 10 9 10 10 10 8 9 9 9 10 10 10 10 9 8 8 8 7 7 7 7 6 6 6 6 7 6 5 6 6 6 6 7 7 7 7 6 6 6 5 5 5 5 5 6 5 4 4 4 5 4 4 3 3 2 3 4 3 3 6 10 14 10 10 10 10
13 12 12 12 14 14 12 11 12 14 14 14 13 12 12 11 10 10 11 12 11 11 10 8 9 8 8 8 10 10 10 11 10 9 8 7 7 7 7 7 7 6 6 6 6 6 7 6 7 7 7 7 7 7 6 6 6 6 6 5 5 6 6 6 6 6 4 5 5 6 5 4 3 4 3 4 5 3 1 7 10 11 11 11 10
13 13 12 12 14 15 14 14 14 15 15 15 14 13 12 12 12 11 11 10 11 11 9 9 10 8 8 10 10 10 11 11 11 10 9 9 8 8 7 7 7 7 7 7 6 6 6 6 7 8 7 7 7 8 7 7 6 7 6 6 6 6 6 6 6 6 4 5 5 5 5 5 3 2 3 4 3 4 3 2 8 9 9 9 11
12 13 13 13 14 14 14 14 13 13 12 12 13 12 11 11 11 11 9 9 12 11 9 9 9 7 9 11 10 10 10 11 12 11 10 10 8 8 8 8 8 8 7 7 7 7 8 7 8 8 8 8 7 7 8 7 6 6 7 8 7 6 7 6 5 5 6 6 6 6 6 6 4 5 4 5 4 6 4 1 2 4 5 5 7
10 13 14 13 12 12 12 13 13 13 13 12 12 12 11 11 11 11 11 11 9 10 8 9 8 10 11 11 11 10 10 11 12 12 11 10 10 9 8 8 8 7 8 9 8 8 8 9 9 8 8 8 8 8 7 6 6 7 7 8 7 8 7 6 5 5 4 6 6 6 5 6 5 5 5 4 4 5 7 6 5 4 4 6 6
11 12 14 14 13 12 12 12 13 14 12 12 11 11 10 10 12 12 12 12 11 9 8 9 11 13 13 12 11 11 11 11 12 11 11 11 11 9 9 9 8 8 8 9 9 9 10 10 10 10 9 8 8 7 7 7 7 8 8 8 9 8 9 7 7 7 6 7 6 6 6 6 6 6 6 5 5 5 6 7 7 6 6 7 9
12 13 13 14 15 14 12 14 12 13 12 11 12 12 12 11 12 13 13 11 11 10 7 9 13 13 14 13 13 12 12 12 11 12 12 11 11 10 10 10 9 9 9 10 10 10 10 10 9 8 10 10 9 8 8 6 7 7 7 9 9 9 9 8 8 8 9 6 5 5 5 6 6 6 6 6 6 6 6 7 7 7 7 5 7
12 13 14 15 15 15 15 14 12 12 14 14 12 12 12 12 12 12 12 12 11 10 12 12 13 12 13 13 13 13 14 13 11 12 11 12 12 11 10 10 11 9 9 9 10 10 10 9 8 8 9 10 9 9 8 8 8 8 7 7 9 9 9 9 9 11 11 8 7 6 6 7 7 7 6 6 6 7 7 6 7 7 7 5 6
13 13 13 14 14 14 14 13 13 13 13 14 13 13 13 12 13 11 11 10 11 11 11 12 12 13 14 13 13 13 14 14 14 13 12 13 14 13 11 10 11 10 9 10 10 11 10 11 11 9 8 9 9 8 10 11 8 7 7 6 6 6 6 6 9 11 11 9 7 7 7 7 8 7 6 6 6 7 7 7 7 7 7 6 6
11 11 12 14 12 12 13 14 13 13 12 14 13 13 13 12 13 11 10 10 9 10 11 12 13 15 15 14 14 14 15 14 15 14 12 12 13 13 11 10 11 11 10 10 11 11 11 11 11 11 9 8 9 10 10 11 9 7 8 8 6 5 7 8 10 9 11 11 9 9 8 8 8 8 6 7 7 7 7 7 9 7 7 7 6
11 11 12 12 10 13 13 14 13 14 13 13 14 13 11 11 11 11 10 10 10 10 11 12 14 14 13 15 16 16 16 15 15 17 14 16 14 13 13 12 11 12 11 11 11 11 12 11 12 11 13 11 9 8 9 10 12 10 6 5 6 6 8 6 5 7 10 9 11 10 8 9 9 9 8 8 7 7 7 8 8 7 7 6 6
11 11 11 12 12 11 12 13 11 11 13 14 15 13 12 12 13 12 12 12 14 14 15 15 14 15 16 14 14 16 17 16 16 17 16 14 17 15 14 13 12 12 12 11 10 10 12 12 13 12 13 13 10 8 8 9 10 11 11 9 6 4 4 5 5 4 7 7 8 9 10 10 9 8 8 8 8 8 7 8 8 7 7 7 6
11 9 9 11 13 12 12 13 12 11 11 13 15 13 14 13 15 15 14 14 14 12 12 11 11 11 10 13 13 14 16 17 17 16 17 16 15 15 15 14 13 12 11 11 11 12 11 12 11 12 12 11 11 10 10 9 8 9 10 12 12 9 6 3 5 3 5 6 5 7 9 8 8 9 8 9 9 8 8 8 7 7 7 7 6
9 8 9 10 12 13 12 13 11 11 11 12 14 14 14 14 14 15 13 13 13 12 13 12 11 9 11 12 11 12 15 15 15 16 15 16 16 16 15 15 14 13 12 12 12 11 10 10 11 12 11 10 12 12 10 10 10 9 10 11 12 11 10 9 8 7 6 6 6 5 5 7 7 8 8 9 9 10 9 8 8 7 7 7 7
8 8 9 9 9 10 12 12 13 12 11 13 13 15 14 13 14 13 14 12 12 11 9 10 10 10 12 11 11 11 12 14 15 14 15 16 13 14 14 15 14 15 11 11 12 12 13 11 12 12 12 12 11 11 10 10 11 9 9 10 10 10 9 9 9 7 8 9 10 8 6 5 4 5 7 9 9 8 8 9 7 7 7 7 7
7 7 8 8 8 8 11 13 14 12 12 14 14 15 16 14 14 15 15 13 11 10 10 11 11 11 12 12 11 11 10 11 13 14 14 15 15 14 13 15 15 14 11 12 12 12 12 12 12 12 12 13 11 11 12 10 10 10 10 8 9 8 8 8 9 10 8 9 10 9 6 7 9 7 9 9 11 10 8 8 7 8 8 7 7
6 7 7 8 8 9 11 13 14 12 12 13 15 16 16 15 15 16 16 15 14 12 12 13 11 12 13 13 12 11 11 11 11 12 14 14 14 13 14 13 12 12 12 12 13 12 12 12 12 13 12 13 11 12 11 11 10 10 11 10 10 10 10 10 10 8 9 9 8 11 11 8 9 8 9 12 10 10 9 8 8 8 9 8 7
Wind_Direction
149 143 133 124 149 139 132 125 119 119 116 117 119 118 122 118 120 122 123 123 119 112 109 106 107 100 94 91 89 89 89 83 87 95 94 91 94 98 98 86 80 80 83 84 88 84 82 83 85 83 86 83 83 84 85 83 82 83 80 76 70 63 59 59 63 68 77 81 90 86 77 73 77 79 78 69 66 47 34 41 43 51 47 53 52
159 141 137 135 144 146 135 130 121 118 119 117 120 121 123 121 123 127 123 123 121 114 112 111 108 105 102 98 96 92 87 89 92 88 89 89 89 89 83 86 85 78 78 82 86 87 86 86 87 87 86 88 86 85 84 88 86 84 80 71 67 62 57 53 48 42 48 78 89 89 87 77 72 71 69 75 62 47 44 44 46 53 54 61 60
150 147 139 130 151 140 136 133 129 123 123 116 116 119 121 125 130 129 124 130 121 118 114 111 104 103 100 98 98 99 97 100 83 93 95 95 101 100 90 89 83 79 89 91 90 94 95 91 91 89 88 89 88 88 89 88 88 85 83 78 73 63 57 51 44 38 28 16 63 88 84 77 70 72 70 68 61 51 44 43 45 52 53 61 65
145 145 140 124 139 139 141 133 133 129 123 118 118 123 128 134 137 134 139 134 127 122 121 114 110 109 107 103 99 96 101 97 99 102 99 104 97 93 100 98 103 109 102 96 97 97 96 99 97 95 92 91 93 90 88 86 87 86 84 79 68 62 57 50 42 29 18 351 338 128 82 79 77 69 68 64 62 59 50 49 51 57 60 65 69
145 144 141 142 147 149 141 132 128 133 129 129 127 129 135 136 139 140 139 135 133 126 122 115 113 109 104 103 106 110 100 97 102 97 94 101 101 91 95 102 99 98 105 103 101 98 98 100 99 96 95 90 88 88 86 90 84 82 78 73 66 61 53 43 31 14 349 331 321 76 74 88 84 73 67 62 58 57 62 50 55 57 63 68 73
144 148 152 152 151 147 132 134 133 132 135 137 136 136 139 140 144 144 143 135 131 131 124 118 113 106 105 107 107 105 100 107 109 109 121 114 112 106 102 101 112 107 97 103 104 103 103 102 100 100 101 95 91 92 89 84 84 82 77 70 66 61 51 32 9 347 337 315 329 67 68 64 73 77 75 67 60 50 58 53 58 65 67 71 76
147 147 154 154 154 142 134 135 133 131 137 141 146 145 145 144 142 142 134 133 133 131 128 120 113 107 111 111 106 108 113 105 103 109 103 98 93 94 107 118 110 114 110 104 103 106 105 102 102 102 100 99 94 90 88 85 81 76 72 67 61 56 45 22 355 327 324 310 61 63 67 67 75 79 64 59 60 60 57 58 60 68 73 76 76
148 149 158 152 162 126 135 136 139 134 133 139 146 154 154 157 145 139 128 133 133 128 129 119 112 111 117 116 118 114 107 108 111 108 109 112 114 109 107 104 97 90 101 102 99 98 101 102 102 102 101 98 96 90 88 86 80 75 68 64 56 47 34 9 344 332 308 53 56 57 65 74 74 70 62 62 61 54 59 73 65 70 77 80 80
154 161 154 148 138 117 129 138 146 140 136 132 136 149 161 167 143 131 124 120 127 131 131 123 119 126 127 126 126 123 115 116 108 106 112 111 109 121 114 104 105 109 105 107 109 109 103 105 103 104 101 96 98 95 88 86 81 77 71 65 56 43 22 355 313 298 267 75 68 62 56 67 77 76 67 69 65 58 46 60 74 75 80 83 81
156 159 158 142 145 122 130 150 158 147 144 142 142 152 168 159 180 151 136 135 126 133 146 144 146 144 140 131 136 132 125 117 117 116 116 117 119 119 113 112 107 106 110 106 105 105 108 106 103 101 101 100 97 96 90 83 83 78 74 66 55 35 14 332 333 307 48 80 70 66 50 26 74 77 76 78 74 70 74 69 76 85 90 82 80
155 156 155 146 130 122 136 148 125 138 149 153 152 155 158 164 171 146 154 146 136 137 143 147 146 133 120 135 134 134 129 121 119 122 124 125 133 125 119 113 117 118 108 109 112 109 105 102 104 102 99 101 96 92 89 85 84 80 72 64 51 31 360 345 304 73 31 69 52 60 67 75 81 76 84 81 81 77 81 86 95 94 87 83 82
158 150 156 119 122 128 140 140 141 155 156 159 156 155 169 167 190 161 162 151 144 144 146 149 137 113 120 138 140 143 138 125 126 127 129 123 111 117 115 116 119 107 107 106 107 107 103 105 104 106 103 100 96 90 89 88 83 79 68 55 44 26 352 337 348 61 58 73 50 51 63 68 66 72 73 75 73 82 92 99 98 94 86 85 84
156 152 155 130 145 127 144 150 153 161 163 165 166 170 172 177 178 165 168 150 146 153 159 141 132 121 120 146 153 155 148 135 134 129 125 126 126 128 116 116 106 106 106 104 109 106 107 106 106 106 106 102 98 93 90 90 85 76 63 47 27 11 356 323 33 47 67 64 58 64 69 74 73 76 79 76 77 91 99 101 97 87 88 87 88
159 162 162 161 148 143 135 150 164 155 166 171 173 168 176 185 172 184 165 154 164 167 146 133 137 134 124 130 148 153 148 142 140 131 129 135 130 108 111 110 115 118 115 111 106 109 111 107 104 104 107 101 97 96 92 90 84 75 62 45 24 357 346 273 49 74 74 88 45 60 84 69 64 75 76 80 90 99 101 97 90 90 90 89 89
165 166 165 170 146 162 139 145 154 157 159 162 168 175 177 187 184 209 177 164 174 145 123 130 135 129 132 125 135 147 141 135 136 139 137 130 124 119 118 106 106 113 118 116 118 117 116 113 105 107 102 102 94 94 98 93 90 77 62 40 27 356 344 10 55 81 83 86 76 72 75 80 39 88 83 88 100 101 101 95 93 93 92 92 91
163 175 176 174 166 159 166 145 136 153 159 158 167 187 185 181 190 224 191 163 130 135 140 141 134 131 130 138 129 137 147 147 142 138 123 127 128 127 118 120 120 121 126 128 121 118 115 112 110 111 107 98 96 89 94 101 92 81 64 42 18 7 334 327 79 85 90 72 64 74 71 63 40 87 90 101 102 106 100 96 94 93 92 93 93
172 181 184 181 181 166 176 173 158 146 160 163 170 192 188 160 123 26 272 137 141 149 155 164 162 147 149 133 114 129 134 141 146 133 125 120 129 125 123 122 127 123 124 126 133 129 123 120 120 113 106 97 94 87 91 99 97 86 65 37 20 352 318 319 75 75 76 63 58 77 73 46 78 89 108 108 112 112 105 101 99 96 95 95 94
183 188 192 189 193 182 180 179 158 177 181 164 176 198 194 195 127 149 153 138 146 149 155 115 125 109 91 89 80 97 111 118 139 146 130 127 117 123 129 132 139 138 120 126 128 127 121 121 119 113 104 98 89 91 84 99 100 88 70 30 341 328 288 305 63 88 85 65 69 51 68 21 84 99 101 109 113 113 110 107 101 98 98 97 97
190 199 200 198 198 195 192 183 182 186 190 188 190 177 191 162 151 136 153 145 147 137 112 110 105 99 98 96 88 77 72 68 69 66 80 88 100 104 103 127 134 129 133 124 130 133 131 128 122 113 105 97 93 89 93 85 100 96 65 3 301 282 303 291 56 84 70 62 62 75 36 10 90 94 93 105 110 110 105 101 99 101 101 101 100
194 205 204 202 207 201 199 194 197 202 190 199 191 185 163 157 149 133 150 149 130 117 118 114 109 108 111 117 117 114 109 94 101 91 75 74 56 94 97 113 137 142 143 140 148 141 134 119 117 115 110 99 91 84 85 93 91 92 74 300 268 284 280 71 85 43 95 72 60 63 9 28 88 102 107 108 111 108 103 101 101 102 105 104 104
200 206 213 203 207 208 204 205 204 205 205 201 196 187 153 153 150 136 130 129 127 126 116 107 110 111 128 136 156 181 166 142 168 135 89 74 73 64 75 72 96 131 148 145 148 149 127 113 111 117 111 107 101 88 73 81 89 93 223 254 277 274 42 38 53 43 70 75 61 38 359 353 110 92 95 107 111 109 106 102 101 106 110 111 107
202 207 213 212 208 206 208 210 207 209 212 208 204 189 154 178 194 179 173 137 131 134 144 153 153 144 141 174 203 211 209 196 152 141 139 122 75 61 68 88 80 59 93 109 154 150 124 98 106 109 115 128 176 161 128 117 132 135 222 252 265 47 38 44 58 89 25 80 75 15 358 348 184 117 106 106 110 105 98 101 106 112 114 112 109
211 213 211 213 212 209 205 211 207 207 211 211 207 211 170 193 200 194 194 173 165 175 182 176 189 173 177 193 218 221 213 201 84 64 72 72 83 65 84 106 121 130 146 132 130 129 121 62 85 100 133 207 217 227 127 167 162 181 220 242 89 50 46 51 68 67 102 356 101 13 2 353 347 105 111 116 105 105 103 107 111 117 119 116 115
216 213 219 212 214 215 212 214 212 210 210 210 208 209 199 199 205 194 200 197 185 197 213 204 210 205 193 211 219 217 216 148 111 104 134 165 118 99 99 120 139 165 195 199 167 199 224 218 214 201 211 215 228 196 143 89 154 181 195 42 55 62 25 43 65 64 81 62 54 16 3 357 16 117 125 124 118 106 111 115 118 124 120 115 112
208 214 216 217 213 214 214 213 214 212 214 212 210 213 212 207 207 205 205 201 195 205 214 211 208 211 201 227 226 205 184 231 177 158 200 207 180 186 186 206 194 185 184 227 196 173 207 189 184 212 224 200 223 193 332 117 175 36 67 33 55 53 58 52 76 78 98 101 73 22 13 356 9 164 148 141 132 125 125 128 131 128 124 123 117
195 210 212 212 213 216 216 213 211 215 214 218 213 216 216 214 209 210 209 208 204 204 211 207 208 199 208 234 233 213 216 234 231 212 208 215 209 210 208 218 231 218 160 228 210 191 200 207 203 205 224 217 259 90 354 341 26 264 3 66 324 61 110 45 102 101 183 103 91 39 28 4 357 29 154 163 147 150 138 146 142 138 137 130 129
200 208 210 210 210 214 215 216 213 211 216 221 221 215 216 220 216 211 212 214 213 207 208 213 214 208 201 215 234 205 217 234 232 227 226 223 224 225 226 224 227 229 210 219 214 201 205 207 211 211 224 217 193 156 226 242 318 339 287 162 233 303 307 168 123 157 297 116 107 83 41 7 4 355 360 201 157 152 157 143 142 140 136 135 138
203 204 205 206 203 210 214 213 215 209 213 218 222 221 218 219 221 212 215 215 211 213 213 212 210 208 204 204 213 227 226 226 222 222 225 223 226 230 224 224 226 233 227 220 210 205 206 212 209 220 220 215 228 219 228 213 192 194 328 317 148 248 220 228 170 238 221 236 131 112 32 22 1 359 352 309 167 169 158 156 159 154 152 148 147
208 203 200 205 203 204 209 212 210 210 212 213 219 221 220 217 218 219 216 211 216 214 218 216 219 216 212 216 215 226 229 221 216 215 216 217 218 228 227 229 227 228 228 223 213 206 207 207 207 218 210 221 214 202 218 260 245 210 196 208 233 231 224 236 240 232 260 247 140 126 101 229 359 351 345 331 196 172 166 165 164 161 161 162 161
217 211 203 203 204 200 207 210 209 208 209 211 214 219 220 218 218 218 216 199 211 213 215 218 218 217 215 209 223 225 233 219 208 211 210 210 209 214 220 224 226 222 220 218 210 209 203 206 212 211 214 218 237 238 270 241 228 240 235 239 230 247 218 235 216 226 227 232 194 138 155 138 217 339 347 310 281 178 174 170 174 170 168 171 175
216 217 212 208 204 204 205 210 208 201 205 209 211 215 218 221 219 218 217 205 206 206 214 218 213 218 220 206 207 220 233 226 215 208 209 206 206 207 209 213 215 214 215 216 208 207 208 211 208 208 212 212 218 227 208 250 244 230 219 213 232 235 230 222 240 238 235 222 224 156 159 168 186 3 319 314 304 196 179 177 171 181 189 182 184
213 214 212 207 207 208 208 207 209 204 207 209 206 214 216 219 221 219 219 206 204 207 214 218 213 217 221 215 195 215 224 230 228 219 218 214 211 206 207 208 213 212 209 208 208 201 212 219 210 221 232 220 236 234 214 234 239 243 236 210 218 232 221 222 228 226 244 250 238 220 174 170 178 196 300 322 315 224 182 180 183 186 198 190 195
217 217 209 206 209 206 209 207 207 207 205 212 211 213 215 217 218 219 218 207 203 208 211 215 214 215 221 220 210 210 223 222 226 228 222 229 224 215 214 212 212 210 204 201 203 202 209 211 197 200 220 235 240 241 227 239 253 246 244 231 231 218 224 218 222 225 227 248 236 230 227 180 189 168 174 327 313 262 201 196 192 197 203 198 192
211 211 211 212 208 206 202 204 203 209 207 210 215 215 214 215 218 218 218 211 208 208 212 213 211 215 217 222 223 216 222 225 225 225 225 230 231 223 220 216 211 208 202 194 196 201 202 199 206 194 209 218 226 228 233 228 228 233 233 233 240 238 221 227 230 224 219 231 235 225 234 211 200 210 178 122 287 276 187 219 199 207 206 199 192
209 208 207 209 203 204 197 201 198 205 204 209 211 218 218 216 216 219 218 211 210 212 212 214 215 213 216 219 222 220 219 223 223 228 222 226 231 228 220 221 213 201 202 200 198 197 199 203 204 205 211 216 226 228 225 232 236 230 220 216 221 230 229 222 223 233 232 239 232 237 230 234 209 225 208 200 118 211 204 216 215 184 188 194 197
213 212 209 205 206 205 197 200 196 203 204 205 208 212 218 219 212 215 220 213 211 214 210 204 217 217 214 217 217 221 222 221 222 225 229 224 228 231 223 217 213 207 207 200 198 201 197 204 205 212 222 219 221 226 225 228 230 235 230 230 226 227 231 227 223 222 212 223 232 236 232 231 223 218 211 222 187 86 315 168 164 182 183 196 200
215 215 212 204 208 206 200 203 202 203 206 204 205 207 212 218 220 219 220 214 213 212 209 209 215 215 215 217 213 215 219 223 222 220 225 228 227 228 226 215 208 213 206 203 195 203 200 201 213 217 225 231 222 228 228 224 225 231 235 231 234 230 233 234 227 224 214 223 224 218 224 236 222 201 207 241 174 139 69 205 171 179 191 196 203
220 219 216 210 208 208 205 204 206 204 205 206 204 206 210 217 221 224 217 216 216 214 209 208 207 201 214 217 215 212 213 219 222 220 223 229 225 228 225 215 208 210 214 210 204 202 209 209 215 217 217 225 234 228 225 226 227 229 232 236 230 232 237 237 231 210 220 220 234 213 212 224 208 203 218 211 227 157 158 168 156 154 169 191 207
220 217 216 216 212 212 208 202 203 204 203 204 205 205 207 218 224 224 223 222 218 213 209 210 202 206 213 213 216 218 214 215 218 220 222 226 225 227 227 216 211 210 213 217 214 208 209 212 217 218 217 222 230 233 236 228 224 225 236 243 242 237 238 231 230 221 217 208 219 212 208 208 200 203 209 219 214 189 171 181 192 195 197 206 209
216 214 213 213 215 214 211 208 204 204 202 201 200 201 202 213 220 222 225 222 219 214 203 212 210 212 212 211 211 214 214 212 215 216 219 222 226 221 222 219 213 210 214 217 215 209 208 211 216 221 225 221 222 241 237 231 236 241 235 238 243 241 236 236 234 232 228 229 220 193 197 205 203 200 208 207 207 198 184 192 196 204 203 193 212
214 213 210 209 210 210 206 210 205 203 201 199 200 197 198 206 218 221 223 219 216 212 205 214 218 217 211 209 210 212 213 206 205 215 219 219 224 223 220 220 215 211 215 220 217 215 210 211 214 214 222 228 223 216 234 236 234 236 233 238 240 235 234 231 236 239 238 227 199 194 204 202 203 198 203 203 206 199 198 201 205 207 212 175 200
218 214 211 207 208 209 209 207 204 202 204 203 199 201 199 200 203 213 219 221 214 209 214 216 221 222 217 212 209 210 212 211 203 208 215 217 218 222 221 216 217 211 216 219 216 214 212 210 208 214 210 221 228 210 210 207 224 226 230 231 234 225 220 203 221 234 234 213 204 200 201 205 202 203 202 202 206 202 205 208 210 212 213 199 194
223 216 214 210 208 208 209 206 205 202 205 203 203 202 199 196 198 204 208 214 216 211 217 220 220 223 220 216 214 213 214 212 210 201 210 214 217 219 220 214 213 207 209 213 213 211 210 210 208 211 208 212 224 217 206 199 219 214 228 254 252 254 190 205 222 225 218 207 198 201 201 207 207 205 201 205 207 206 206 210 214 214 209 208 200
223 225 219 215 212 209 208 207 209 207 205 205 204 209 204 197 198 202 200 207 214 213 211 219 224 222 222 218 218 217 214 213 211 206 199 208 212 215 216 212 207 204 208 208 206 208 207 209 209 210 214 215 208 217 211 203 211 199 213 213 230 231 254 207 212 216 212 215 207 204 198 206 209 204 206 212 212 208 207 210 215 212 210 207 208
215 218 218 216 215 214 210 208 208 207 206 202 201 206 200 197 197 199 203 212 222 224 214 220 222 220 219 218 217 214 216 213 208 211 204 207 210 212 213 208 206 204 206 209 206 205 206 208 206 206 207 214 213 209 207 207 206 215 232 202 213 233 234 257 189 208 188 205 204 205 199 204 209 204 207 214 213 211 210 213 215 211 207 206 207
219 217 215 220 220 219 215 211 211 210 208 205 200 199 203 199 194 196 201 208 216 214 217 215 212 214 215 213 212 212 214 214 215 216 213 209 213 213 212 207 206 206 205 209 207 202 204 205 205 206 208 211 222 207 206 202 210 211 230 251 249 240 215 207 198 225 167 206 195 206 207 209 206 203 208 215 211 212 209 217 209 209 204 205 202
233 224 220 222 223 223 217 211 209 210 209 205 198 197 204 204 205 203 200 201 207 211 214 215 214 214 213 209 208 206 209 214 217 215 215 213 214 215 215 213 210 208 202 207 208 206 204 204 201 204 208 206 211 225 211 197 196 220 224 238 251 254 267 220 207 236 229 194 220 195 215 212 212 210 210 219 217 214 216 214 209 204 202 203 200
242 228 226 225 224 224 219 215 212 211 206 202 198 198 203 206 208 210 209 209 208 210 204 210 212 211 209 208 207 208 207 209 212 214 213 212 213 215 215 216 214 209 201 206 208 206 208 204 203 204 206 207 206 213 218 209 190 206 209 228 236 243 245 252 255 260 266 260 204 209 228 207 217 219 218 223 222 219 218 211 209 200 203 201 200
244 228 223 223 226 227 225 221 218 213 209 200 201 201 203 207 210 214 217 216 213 212 206 205 207 205 210 205 206 207 207 208 210 211 211 212 207 211 211 215 214 217 204 207 208 207 207 207 202 204 205 208 208 211 216 217 210 208 184 214 227 230 228 233 242 222 242 251 254 227 193 203 227 231 224 228 229 225 216 217 206 199 204 201 199
240 234 231 228 229 228 226 223 222 217 210 205 199 202 204 205 212 215 218 218 211 212 208 207 204 200 207 207 205 206 206 207 209 209 209 210 208 207 212 215 215 217 211 206 206 207 209 213 212 209 208 209 212 210 215 217 218 214 195 189 202 215 226 230 222 227 222 229 249 239 208 172 216 219 215 221 227 222 219 217 210 201 205 205 197
232 227 232 231 231 228 227 226 224 221 215 210 203 203 203 205 212 215 216 218 214 210 209 213 209 202 205 204 203 204 204 207 204 207 209 206 208 205 208 213 216 217 216 210 207 206 208 214 217 219 215 215 215 215 213 218 221 218 213 205 201 199 206 208 210 197 210 225 227 245 244 220 220 236 203 212 219 219 215 212 211 204 205 205 198